Location: Newark
(15.7058°N, 0.4100°E)
Time: 15:37:44
(UTC+00:00)

Envisat - Visible Passes

Search period start: 14 December 2019 00:00
Search period end: 24 December 2019 00:00
Orbit: 764 x 766 km, 98.1° (Epoch: 14 December)

Date Brightness Start Highest point End Pass type
(mag) Time Alt. Az. Time Alt. Az. Time Alt. Az.
14 Dec 5.9 05:42:32 10° NE 05:46:24 22° E 05:50:16 10° SSE visible
14 Dec 3.2 18:20:59 10° S 18:26:02 74° WSW 18:31:06 10° NNW visible
15 Dec 3.4 17:44:41 10° SE 17:49:23 39° ENE 17:54:05 10° N visible
15 Dec 6.1 19:26:06 10° SW 19:28:18 13° W 19:30:31 10° WNW visible
16 Dec 4.6 18:46:53 10° SSW 18:51:30 36° W 18:56:07 10° NW visible
17 Dec 6.0 05:32:01 10° ENE 05:35:07 16° E 05:38:12 10° SE visible
17 Dec 2.9 18:09:42 10° SSE 18:14:46 82° ENE 18:19:51 10° N visible
18 Dec 5.8 19:13:41 10° SW 19:17:00 18° W 19:20:20 10° WNW visible
19 Dec 5.1 05:56:06 10° NE 06:00:38 33° E 06:05:09 10° SSE visible
19 Dec 4.0 18:35:21 10° S 18:40:13 48° W 18:45:06 10° NNW visible
20 Dec 6.4 05:22:04 10° ENE 05:23:49 12° E 05:25:34 10° ESE visible
20 Dec 3.0 17:58:33 10° SSE 18:03:32 60° ENE 18:08:30 10° N visible
21 Dec 5.4 19:01:42 10° SSW 19:05:43 24° W 19:09:44 10° NW visible
22 Dec 5.6 05:45:15 10° NE 05:49:20 25° E 05:53:25 10° SSE visible
22 Dec 3.4 18:23:56 10° S 18:28:57 66° WSW 18:33:59 10° NNW visible
23 Dec 6.2 19:29:45 10° WSW 19:31:14 11° W 19:32:43 10° W visible
